(40) Harmonia
ephemeris date magn radius delta ra dec elong phase
Today6 Jul 202511.52.190 AU2.887 AU04h14m+18°51'38.8°16.9°
Opposition2 Jan 20269.02.277 AU1.294 AU06h51m+23°54'179.0°0.4°
(40) Harmonia - 2025-07-06
astro.vanbuitenen.nl


 
-1 year
-1 month
-1 day
Now
+1 day
+1 month
+1 year

The interactive orbit chart above shows the body's path through the solar system and its position at the given date. Green and blue lines are shown perpendicular to the ecliptic plane: Green if the path is above the ecliptic plane, blue if it is below. (Left-click and drag to rotate the view; Right-click and drag to move the view; Use scroll wheel to zoom in our out.)

The orbital elements of Harmonia are:

            e (Eccentricity)                : 0.0460364
            a (Semimajor axis)              : 2.2669577
            i (Inclination)                 : 4.25591
            Ω (Longitude of ascending node) : 94.15595
            ω (Argument of perihelion)      : 269.47054
            M (Mean anomaly)                : 22.93684
            Epoch                           : 2025 May 05

            L (Longitude of perihelion)     : 183.62503
            B (Latitude of perihelion)      : -4.25573
            P (Orbital period in years)     : 3.41            
        

The light curve chart below shows the estimated development of the minor planet's magnitude.


The all-sky chart below shows the path of the minor planet over the same period as the light curve. The current position is marked yellow.





The following chart shows the path of the minor planet in the next few days. The field of view is optimized for (~10x50) binoculars and finderscopes. A more printer-friendly version of the same chart can be found below.




Ephemerides:
Date       Time       RA (2000)    DEC (2000)    delta   radius  elong  phase   PA    magn
2025-07-06 00:00 UT   04 14 17.9   +18 51 21     2.887    2.190   38.8   16.9   257   11.5 
2025-07-06 00:01 UT   04 14 18.0   +18 51 22     2.887    2.190   38.8   16.9   257   11.5 
2025-07-07 00:00 UT   04 16 18.2   +18 56 49     2.880    2.191   39.3   17.1   257   11.5 
2025-07-08 00:00 UT   04 18 18.4   +19 02 10     2.873    2.191   39.8   17.3   257   11.5 
2025-07-09 00:00 UT   04 20 18.5   +19 07 26     2.866    2.191   40.2   17.4   258   11.5 
2025-07-10 00:00 UT   04 22 18.4   +19 12 35     2.859    2.192   40.7   17.6   258   11.5 
2025-07-11 00:00 UT   04 24 18.3   +19 17 39     2.852    2.192   41.2   17.8   258   11.5 
2025-07-12 00:00 UT   04 26 18.0   +19 22 37     2.845    2.192   41.7   18.0   258   11.5 
2025-07-13 00:00 UT   04 28 17.6   +19 27 29     2.838    2.193   42.1   18.1   259   11.5 
2025-07-14 00:00 UT   04 30 17.1   +19 32 15     2.830    2.193   42.6   18.3   259   11.5 
2025-07-15 00:00 UT   04 32 16.5   +19 36 55     2.823    2.194   43.1   18.5   259   11.5 
2025-07-16 00:00 UT   04 34 15.7   +19 41 29     2.815    2.194   43.6   18.6   259   11.5 
2025-07-17 00:00 UT   04 36 14.8   +19 45 58     2.808    2.194   44.1   18.8   259   11.5 
2025-07-18 00:00 UT   04 38 13.7   +19 50 20     2.800    2.195   44.5   18.9   260   11.5 
2025-07-19 00:00 UT   04 40 12.4   +19 54 37     2.793    2.195   45.0   19.1   260   11.5 
2025-07-20 00:00 UT   04 42 11.0   +19 58 48     2.785    2.196   45.5   19.3   260   11.5 
2025-07-21 00:00 UT   04 44 09.4   +20 02 53     2.777    2.196   46.0   19.4   260   11.5 
2025-07-22 00:00 UT   04 46 07.6   +20 06 52     2.769    2.196   46.5   19.6   261   11.5 
2025-07-23 00:00 UT   04 48 05.6   +20 10 45     2.761    2.197   47.0   19.8   261   11.5 


    Terminology:
            
    delta:  distance between minor planet and earth in AU
    radius: distance between minor planet and sun in AU
    magn:   magnitude (brightness) estimate    
    ra:     right ascension in hours (24h = 360deg)
    dec:    declination in degrees
    elong:  elongation in degrees (angle sun-earth-minor planet)    
    phase:  phase angle in degrees (angle sun-minor planet-earth)        
    AU:     Astronomical Unit (mean distance between earth and sun: 149597870.7 km
    

Orbital elements provided by the MPC (Minor Planet Center).
Calculations by a modified version of AAPlus, a C# implementation of the AA+ project by PJ Naughter from the algorithms presented in the book "Astronomical Algorithms" by Jean Meeus.
NGC2000 dso catalog and star labels from VizieR as provided by the Strasbourg astronomical Data Center.
Tycho2 catalog from the ESO archive.